hct.com.tw alexa rank chart, hct.com.tw alexa rank daily changes

hct.com.tw alexa rank chart, hct.com.tw alexa rank daily changes

hct.com.tw
Actual rank:
42 679

RANK HISTORY

Date Rank Diff
2018/01/18 42 679 -779
2018/01/17 43 458 -145
2018/01/16 43 603 +619
2018/01/15 42 984 +1 506
2018/01/14 41 478 +174
2018/01/13 41 304 +685
2018/01/12 40 619 -923
2018/01/11 41 542 -1 038
2018/01/10 42 580 -142
2018/01/09 42 722 +1 281
2018/01/08 41 441 +1 218
2018/01/07 40 223 +569
2018/01/06 39 654 +373
2018/01/05 39 281 -752
2018/01/04 40 033 -550
2018/01/03 40 583 +1 009
2018/01/02 39 574 +1 092
2018/01/01 38 482 +627
2017/12/31 37 855 +180
2017/12/30 37 675 -665
2017/12/29 38 340 +144
2017/12/28 38 196 -796
2017/12/27 38 992 -641
2017/12/26 39 633 +437
2017/12/25 39 196 +951
2017/12/24 38 245 -498
2017/12/23 38 743 +444
2017/12/22 38 299 +22
2017/12/21 38 277 -789
2017/12/20 39 066 -634
2017/12/19 39 700 +677
2017/12/18 39 023 +877
2017/12/17 38 146 +1 050
2017/12/16 37 096 +1 427
2017/12/15 35 669 +89
2017/12/14 35 580 -561
2017/12/13 36 141 -697
2017/12/12 36 838 +696
2017/12/11 36 142 +328
2017/12/10 35 814 +305
2017/12/09 35 509 -167
2017/12/08 35 676 +116
2017/12/07 35 560 -859
2017/12/06 36 419 -517
2017/12/05 36 936 +572
2017/12/04 36 364 +501
2017/12/03 35 863 +77
2017/12/02 35 786 -117
2017/12/01 35 903 -1 505
2017/11/30 37 408 -933
2017/11/29 38 341 -636
2017/11/28 38 977 +438
2017/11/27 38 539 +359
2017/11/26 38 180 -198
2017/11/25 38 378 -659
2017/11/24 39 037 -928
2017/11/23 39 965 -1 275
2017/11/22 41 240 -719
2017/11/21 41 959 +602
2017/11/20 41 357 +59
2017/11/19 41 298

WIDGET FOR YOUR SITE

DOMAINS WITH THE NEAREST RANK

Domain Rank
nb2kore.in 42 674
lifetime.life 42 675
deutschlandradio.de 42 676
google.com.ag 42 677
unotices.com 42 678
hct.com.tw 42 679
humankinetics.com 42 680
szzfgjj.com 42 681
hurriyetdailynews.com 42 682
cidos.edu.my 42 683
alabama.gov 42 684

DOMAINS WITH THE NEAREST RANK BY TLD .com.tw

Domain Rank
famiport.com.tw 40 530
chinatrust.com.tw 41 024
mcdonalds.com.tw 41 380
fubonlife.com.tw 41 794
appledaily.com.tw 41 834
hct.com.tw 42 679
emailcash.com.tw 42 811
mov.com.tw 42 988
comico.com.tw 43 158
pcone.com.tw 43 828
mofang.com.tw 44 026